www.pogodaiklimat.ru

Погода и климат >> Архив погоды >> Тринидад и Тобаго >> Краун-Пойнт


ПОГОДА в Краун-Пойнте

  • Прогноз погоды в Краун-Пойнте
  • Монитор погоды в Краун-Пойнте

АРХИВ ПОГОДЫ в Краун-Пойнте

Время (UTC), дата Ветер
(напр.,м/с)
 
Видим.   Явления Облачность Т
(С)
Тd
(С)
f
(%)
Тe
(С)
Тes
(С)
Комфортность P
(гПа)
Po
(гПа)
Тmin
(С)
Tmax
(С)
R
(мм)
R24
(мм)
S
(см)
15 16.09 З 4 15 км осадки на расстоянии 9/8 360 м
[Cb cap Ac trans Ci sp]
+28.7 +24.4 78 +41 +43 опасность
перегрева
1012.9 1010.9
18 16.09 С 7 6000 м слаб. ливневой дождь {гроза} 9/8 360 м
[Cb cap Ac trans Ci ing]
+28.9 +24.2 76 +40 +41 очень
душно
1010.8 1008.8 +24.8 +32.4 0.0
21 16.09 штиль 0 25 км {ливн. осадки} 9/3 540 м
[Cu Sc Ac As Cs]
+29.2 +25.1 79 +42 +43 опасность
перегрева
1010.3 1008.3
00 17.09 СВ 4 25 км {ливн. осадки} 9/4 480 м
[Cu Sc Ac As Ci sp]
+27.2 +23.5 80 +37 +37 очень
душно
1011.0 1009.0 +25.8 +30.4 0.0
03 17.09 В 9 25 км 9/3 480 м
[Cu Sc Ac As Ci sp]
+28.3 +24.0 78 +39 +39 очень
душно
1011.8 1009.8
06 17.09 В 8 25 км 9/4 480 м
[Cu Sc Ac As Ci sp]
+27.9 +23.9 79 +39 +39 очень
душно
1009.7 1007.7 +25.8 +32.4
12 17.09 ЮВ 6 10 км слаб. ливневой дождь 9/8 360 м
[Cb cap Ac As Ci sp]
+27.3 +24.8 86 +39 +39 очень
душно
1011.5 1009.5 +24.9 +32.4 4
18 17.09 В 6 2000 м дождь {ливн. осадки} 10/6 360 м
[Cb cap Ac As]
+25.0 +23.7 93 +34 +35 очень
душно
1012.2 1010.2 +24.8 +29.3 28
21 17.09 В 3 15 км слаб. дождь 9/9 300 м
[Sc diur, vesp Ac und Cc]
+24.8 +23.8 94 +34 +34 очень
душно
1010.3 1008.3
00 18.09 В 4 15 км слаб. дождь 9/3 420 м
[Cu Sc Ac As Cs]
+25.4 +23.6 90 +35 +35 очень
душно
1011.6 1009.6 +22.9 +29.3 18
03 18.09 В 3 25 км {дождь} 9/3 420 м
[Cu Sc Ac As Cs]
+25.1 +22.8 87 +33 +33 очень
душно
1011.4 1009.4
06 18.09 штиль 0 25 км {дождь} 6/1 480 м
[Cu Sc Ac trans Ci sp]
+25.2 +23.4 90 +34 +34 очень
душно
1009.6 1007.6 +22.9 +29.3 0.0
09 18.09 В 4 25 км 6/1 480 м
[Cu Sc Ac trans Ci sp]
+26.6 +24.3 87 +37 +37 очень
душно
1010.1 1008.1
12 18.09 В 9 22 км осадки на расстоянии 9/3 360 м
[Cb cap Ci ing]
+29.7 +24.9 75 +42 +43 опасность
перегрева
1011.3 1009.3 +24.8 +29.7
15 18.09 ЮВ 11 13 км осадки на расстоянии {ливн. осадки} 8/4 360 м
[Cb cap Ac trans Ci sp]
+29.2 +25.0 78 +42 +42 опасность
перегрева
1010.9 1008.9
18 18.09 ЮВ 11 24 км {ливн. осадки} 8/3 360 м
[Cb cap Ac trans Ci ing]
+30.6 +24.7 71 +43 +44 опасность
перегрева
1009.0 1007.0 +22.9 +31.7 0.0
21 18.09 ЮВ 7 25 км 9/4 540 м
[Cu Sc Ac As Ci sp]
+30.0 +25.0 75 +43 +44 опасность
перегрева
1008.2 1006.2
00 19.09 штиль 0 25 км 9/1 480 м
[Cu Sc Ac trans Ci sp]
+27.5 +23.4 78 +37 +37 очень
душно
1009.6 1007.6 +25.1 +31.7
03 19.09 В 4 25 км 6/1 480 м
[Cu hum Ac trans Ci sp]
+26.9 +24.0 84 +37 +37 очень
душно
1009.9 1007.9
06 19.09 СВ 4 25 км зарница 6/3 360 м
[Cb cap Ci sp]
+26.1 +23.3 85 +35 +35 очень
душно
1008.8 1006.8 +25.1 +31.7
12 19.09 ЮВ 6 20 км осадки на расстоянии 9/4 480 м
[Cu Sc Ac trans Ci sp]
+29.5 +24.9 76 +42 +43 опасность
перегрева
1010.4 1008.4 +25.8 +31.7
15 19.09 ЮВ 11 20 км мгла 9/3 660 м
[Cu Sc Ac trans Ci ing]
+31.1 +25.4 72 +45 +46 опасность
перегрева
1010.8 1008.8
18 19.09 ЮВ 11 20 км мгла 9/3 660 м
[Cu Sc Ac trans Ci ing]
+30.9 +24.9 70 +44 +44 опасность
перегрева
1009.5 1007.5 +25.8 +32.1
21 19.09 ЮВ 11 20 км мгла 9/1 600 м
[Cu Sc Ci sp]
+29.5 +24.2 73 +41 +41 опасность
перегрева
1008.6 1006.6
00 20.09 В 6 20 км мгла 9/1 540 м
[Cu Sc Ci sp]
+28.1 +24.4 80 +39 +39 очень
душно
1009.5 1007.5 +25.8 +32.1
03 20.09 ЮВ 6 20 км мгла 9/1 480 м
[Cu med, cong Ci sp]
+28.0 +24.5 81 +39 +39 очень
душно
1010.7 1008.7
06 20.09 ЮВ 7 20 км осадки на расстоянии 9/3 480 м
[Cu med, cong Ci sp]
+28.3 +24.6 80 +40 +40 очень
душно
1010.4 1008.4 +25.8 +32.1
09 20.09 В 7 11 км слаб. ливневой дождь 9/6 480 м
[Cu Sc Ac trans Ci sp]
+28.0 +24.5 81 +39 +39 очень
душно
1010.9 1008.9
12 20.09 ЮВ 9 30 км {ливн. осадки} 5/4 600 м
[Cu Sc Ac trans Ci sp]
+30.5 +25.5 75 +45 +45 опасность
перегрева
1012.9 1010.9 +27.2 +32.1 0.0
15 20.09 ЮВ 11 30 км 6/3 660 м
[Cu med, cong Ci sp]
+32.1 +26.1 71 +48 +48 опасность
перегрева
1013.4 1011.4
18 20.09 ЮВ 11 30 км 9/1 750 м
[Cu med, cong Cs]
+32.2 +24.4 63 +44 +45 опасность
перегрева
1011.1 1009.1 +27.2 +32.9
21 20.09 ЮВ 10 30 км 6/1 750 м
[Cu med, cong Ci sp]
+31.5 +25.3 70 +46 +46 опасность
перегрева
1010.0 1008.0
00 21.09 ЮВ 9 30 км в посл. час ливневой дождь 5/1 540 м
[Cu med, cong Ci sp]
+28.9 +24.8 79 +41 +41 опасность
перегрева
1012.3 1010.3 +27.2 +32.9 0.0
03 21.09 В 7 15 км осадки на расстоянии 6/0 300 м
[Ac As Cs]
+28.4 +24.6 80 +40 +40 очень
душно
1013.8 1011.8
12 21.09 В 8 20 км осадки на расстоянии {гроза, ливн. осадки} 8/3 480 м
[Cu Sc Ci ing]
+29.8 +25.2 76 +43 +44 опасность
перегрева
1012.0 1010.0 +25.6 +32.9 0.0
15 21.09 ЮВ 8 7000 м осадки на расстоянии 9/8 360 м
[Cb cap Ac As Ci sp]
+31.9 +26.5 73 +48 +49 опасность
перегрева
1012.3 1010.3
18 21.09 штиль 0 20 км осадки на расстоянии {ливн. осадки} 5/3 360 м
[Cb cap Ac As Ci ing]
+30.0 +26.4 81 +46 +59 опасность
перегрева
1010.0 1008.0 +25.6 +30.1 3
21 21.09 ЮЗ 4 7000 м гроза без осадков {ливн. осадки} 9/6 300 м
[Cb cap Ac cuf Cs]
+25.8 +23.9 89 +35 +36 очень
душно
1009.3 1007.3
00 22.09 штиль 0 30 км {гроза} 9/9 300 м
[Cu med, cong Ac As Cs]
+32.7 +25.2 65 +36 +36 очень
душно
1010.5 1008.5 +25.2 +32.7 17
06 22.09 З 5 18 км осадки на расстоянии {ливн. осадки} 9/8 420 м
[Cu Sc Ac As]
+25.8 +23.9 89 +35 +35 очень
душно
1009.1 1007.1 +24.5 +32.7 12
09 22.09 З 9 6000 м дождь 9/9 420 м
[Cu Sc]
+26.2 +24.2 89 +36 +36 очень
душно
1009.1 1007.1
12 22.09 Ю 24 5000 м слаб. дождь 10/10 240 м
[Cb cap]
+25.7 +24.0 90 +35 +35 очень
душно
1011.5 1009.5 +24.5 +32.7 48
15 22.09 Ю 16 5000 м слаб. дождь 10/10 420 м
[Cu Sc]
+26.0 +24.7 93 +37 +37 очень
душно
1012.1 1010.1
18 22.09 Ю 19 14 км слаб. дождь 10/5 420 м
[Cu Sc Ac As]
+25.9 +23.1 85 +35 +35 очень
душно
1011.2 1009.2 +24.3 +27.0 50
21 22.09 Ю 11 18 км слаб. дождь 9/5 360 м
[Cu Sc Ac As]
+25.9 +22.7 83 +34 +34 очень
душно
1010.4 1008.4
00 23.09 Ю 7 20 км осадки на расстоянии 9/3 480 м
[Cu Sc Ac As Cs]
+26.4 +22.8 81 +35 +35 очень
душно
1013.0 1011.0 +24.3 +27.0 9
03 23.09 ЮЗ 6 20 км осадки на расстоянии 10/4 450 м
[Cu Sc Ac As Cs]
+26.7 +23.0 80 +36 +36 очень
душно
1013.7 1011.7
06 23.09 ЮВ 8 18 км осадки на расстоянии 9/4 450 м
[Cu Sc Ac As Cs]
+26.8 +23.5 82 +36 +36 очень
душно
1012.4 1010.4 +24.3 +27.0
12 23.09 Ю 10 14 км осадки на расстоянии {ливн. осадки} 9/4 360 м
[Cu Sc Ac As Ci ing]
+27.4 +23.8 81 +38 +38 очень
душно
1014.4 1012.4 +26.2 +27.8 0.0

 

Местоположение метеостанции Краун-Пойнт (Тринидад и Тобаго): широта 11.15 долгота -60.83 высота над уровнем моря 6 м.

В архиве по умолчанию представлена погода в Краун-Пойнте за последнюю неделю. Архивные данные за месяц целиком и за предыдущие месяцы, начиная с января 2011 года, Вы можете получить, выбрав интересующий диапазон дат из раскрывающегося списка и нажав кнопку "Ввод!".


*Определитесь, кто Вы:
робот инопланетянин человек

Внимание! Время в таблицах - всемирное. Для получения местного времени необходимо прибавить поправку, которая равна -4 ч.

Смотрите также архив погоды в соседних городах и на ближайших метеорологических станциях:

Погода в Аэропорту Пиарко (Тринидад и Тобаго) (81 км)
Погода в Аэропорту Морис Бишоп (Гренада) (140 км)
Погода в Гуирии (Венесуэла) (174 км)
Погода в Арнос Вейл (Сент-Винсент и Гренадины) (224 км)
Погода в Грантли Адамсе (Барбадос) (259 км)
Погода в Аэропорту Хеванорра (Сент-Люсия) (287 км)
Погода в Мэтьюрине (Венесуэла) (301 км)
Погода в Виги (Сент-Люсия) (319 км)
Погода в Порламаре (Венесуэла) (343 км)
Погода в Мабаруме (Гайана) (348 км)

Пояснения к столбцам:

Ветер - указаны скорость ветра в м/с - средняя за 10 мин, порывы в срок и между сроками (в фигурных скобках) и направление, откуда дует ветер: С - северный, СВ - северо-восточный, В - восточный, ЮВ - юго-восточный, Ю - южный, ЮЗ - юго-западный, З - западный, СЗ - северо-западный.
Видимость - горизонтальная дальность видимости в метрах или километрах. При видимости от 1 до 10 км при отсутствии осадков обычно наблюдается дымка, при ухудшении видимости до 1 км и менее - туман. В сухую погоду видимость может ухудшаться дымом, пылью или мглою.
Явления - указаны атмосферные явления, наблюдавшиеся в срок или в последний час перед сроком; фигурными скобками обозначены явления, наблюдавшиеся между сроками (за 1-3 часа до срока); квадратными скобками обозначены град или гололедные отложения с указанием их диаметра в мм.
Облачность - указаны через наклонную черту общая и нижняя облачность в баллах и высота нижней границы облаков в метрах; квадратными скобками обозначены формы облаков: Ci - перистые, Cs - перисто-слоистые, Cc - перисто-кучевые, Ac - высококучевые, As - высокослоистые, Sc - слоисто-кучевые, Ns - слоисто-дождевые, Cu - кучевые, Cb - кучево-дождевые. Подробнее классификацию облаков см. в Атласе облаков (PDF).
T - Температура воздуха - температура, измеренная на высоте 2 м над землей.
Td - Температура точки росы - температура, при понижении до которой содержащийся в воздухе водяной пар достигнет насыщения.
f - Относительная влажность воздуха - влажноcть воздуха, измеренная на высоте 2 м над землей.
Te - Эффективная температура - температура, которую ощущает одетый по сезону человек в тени. Характеристика душности погоды. При расчете учитывается влияние влажности воздуха и скорости ветра на теплоощущения человека.
Tes - Эффективная температура на солнце - температура, которую ощущает человек, с поправкой на солнечный нагрев. Характеристика знойности погоды. Зависит от высоты солнца над горизонтом, облачности и скорости ветра. Ночью, в пасмурную погоду, а также при ветре 12 м/с и более поправка равна нулю.
P - Атмосферное давление - приведенное к уровню моря атмосферное давление.
Po - Атмосферное давление - измеренное на уровне метеостанции атмосферное давление.
Tmin - Минимальная температура - минимум температуры воздуха на высоте 2 м над землей.
Tmax - Максимальная температура - максимум температуры воздуха на высоте 2 м над землей.
R - Количество осадков - Количество выпавших осадков за период времени, мм. При наведении курсора мыши на число - период времени, за который выпало указанное количество осадков.
R24 - Количество осадков - Количество выпавших осадков за 24 часа, мм.
S - Снежный покров - Высота снежного покрова, см. При наведении курсора мыши на число - состояние снежного покрова и степень покрытия местности в баллах.